GEFSGL_850_meantemp_132.txt.gz
Temperature
17 17 17 16 16 16 16 16 15 15 15 15 15 14 14 14 14 14 14 14 13 13 13 13 13 13 13 13 13 13 13 13 13 13 13 13 13 13 14 14 14 14 14
17 17 17 16 16 16 16 16 15 15 15 15 14 14 14 14 14 14 14 13 13 13 13 13 13 13 13 13 13 13 13 13 13 13 13 13 13 13 13 13 14 14 14
17 17 16 16 16 16 16 15 15 15 15 14 14 14 14 14 14 13 13 13 13 13 13 13 13 13 13 12 12 12 12 12 12 12 12 12 13 13 13 13 13 13 14
17 17 16 16 16 16 15 15 15 15 14 14 14 14 14 13 13 13 13 13 13 13 13 12 12 12 12 12 12 12 12 12 12 12 12 12 12 12 12 13 13 13 13
17 16 16 16 16 16 15 15 15 14 14 14 14 13 13 13 13 13 13 13 12 12 12 12 12 12 12 12 12 12 12 12 11 12 12 12 12 12 12 12 12 12 13
17 16 16 16 16 15 15 15 14 14 14 14 13 13 13 13 13 13 13 12 12 12 12 12 12 12 12 12 12 12 12 11 11 11 11 11 11 11 11 11 11 12 12
16 16 16 16 15 15 15 15 14 14 14 13 13 13 13 13 13 13 13 12 12 12 12 11 11 11 11 11 11 11 11 11 11 11 11 11 11 11 11 11 11 11 11
16 16 16 15 15 15 15 14 14 13 13 13 13 13 13 13 13 13 12 12 11 11 11 11 11 11 11 11 10 10 10 10 10 10 10 10 10 10 10 10 10 10 11
16 16 16 15 15 15 14 14 14 13 13 13 13 12 12 12 12 12 12 11 11 11 11 11 11 10 11 11 10 10 10 10 10 10 10 10 10 10 10 10 10 10 10
16 16 15 15 15 14 14 14 13 13 13 12 12 12 12 11 12 12 12 11 11 11 11 10 11 10 10 10 10 9 9 9 9 9 9 9 9 9 9 9 9 9 9
16 16 15 15 14 14 14 14 13 13 12 12 12 12 11 11 11 11 11 11 10 10 10 10 10 10 10 10 10 9 9 9 9 9 9 9 9 9 9 9 9 9 9
16 16 15 15 14 14 14 13 13 12 12 11 11 11 11 11 11 11 11 10 10 10 9 9 9 10 9 9 9 9 9 9 8 8 8 8 8 8 8 8 8 8 8
16 15 15 14 14 14 13 13 12 12 11 11 11 11 10 10 10 10 10 10 10 10 9 9 9 9 9 9 9 8 8 8 8 8 8 8 8 8 8 8 8 8 8
16 15 14 14 13 13 13 12 12 12 11 11 11 10 10 10 10 10 9 9 9 9 9 9 9 9 8 8 8 8 8 8 7 7 7 7 7 7 7 7 7 7 7
15 15 14 14 13 13 12 12 12 12 11 11 11 10 10 10 9 10 9 9 9 8 8 8 8 8 8 8 8 8 7 7 7 7 7 7 7 6 6 6 6 6 6
15 14 14 13 13 13 12 12 12 12 11 11 11 10 10 10 10 9 9 9 9 8 8 8 8 7 7 7 7 7 7 7 7 6 6 6 6 6 6 6 6 6 6
15 14 14 13 13 12 12 12 11 11 11 11 11 10 10 10 9 9 9 9 8 8 8 7 7 7 7 7 7 6 6 6 6 6 6 6 5 5 5 5 5 5 5
14 14 14 13 13 12 12 11 11 11 11 10 10 10 10 10 9 9 9 8 8 8 7 7 7 7 7 6 6 6 6 6 6 5 5 5 5 5 5 5 5 4 5
14 13 13 13 12 12 11 11 11 10 10 10 10 10 10 9 9 9 8 8 8 7 7 7 7 7 6 6 6 6 5 5 5 5 5 5 4 4 4 4 4 4 4
14 13 13 12 12 12 11 11 10 10 10 10 9 9 9 9 9 8 8 8 7 7 7 7 6 6 6 6 5 5 5 5 5 4 4 4 4 4 3 3 3 3 3
13 13 12 12 11 11 11 10 10 10 9 9 9 9 9 8 8 8 8 7 7 7 7 6 6 6 5 5 5 5 4 4 4 4 4 3 3 3 3 3 3 3 2
12 12 12 11 11 11 10 10 10 9 9 9 9 9 8 8 8 7 7 7 7 6 6 6 5 5 5 4 4 4 4 4 3 3 3 3 3 2 2 2 2 2 2
12 11 11 11 11 10 10 10 9 9 9 8 8 8 8 7 7 7 7 6 6 6 6 5 5 5 4 4 4 3 3 3 3 2 2 2 2 2 2 2 2 2 2
11 11 11 10 10 10 9 9 9 9 8 8 8 7 7 7 7 6 6 6 5 5 5 5 4 4 4 3 3 3 2 2 2 2 1 1 1 1 1 1 1 1 1
10 10 10 10 9 9 9 8 8 8 8 7 7 7 6 6 6 6 5 5 5 4 4 4 4 3 3 3 3 2 2 2 2 1 1 1 1 1 1 1 1 1 1
10 9 9 9 8 8 8 7 7 7 7 7 6 6 6 6 5 5 5 4 4 4 4 3 3 3 3 2 2 2 2 1 1 1 1 0 0 0 0 0 0 0 0

GEFSGL_850_meantemp_138.txt.gz
Temperature
18 18 18 18 17 17 17 17 16 16 16 16 16 16 15 15 15 15 15 14 14 14 14 14 14 14 14 14 14 14 14 14 13 13 13 13 13 13 13 14 14 14 14
18 18 18 18 17 17 17 17 16 16 16 16 16 15 15 15 15 15 15 14 14 14 14 14 14 14 14 14 13 13 13 13 13 13 13 13 13 13 13 13 13 13 14
18 18 18 18 17 17 17 17 16 16 16 16 15 15 15 15 15 15 14 14 14 14 14 14 14 13 13 13 13 13 13 13 13 13 13 13 13 13 13 13 13 13 13
18 18 18 18 17 17 17 17 16 16 16 15 15 15 15 15 15 15 14 14 14 14 14 13 13 13 13 13 13 13 13 13 12 12 12 12 12 12 12 12 13 13 13
18 18 18 18 17 17 17 16 16 16 15 15 15 15 15 15 15 15 14 14 14 13 13 13 13 13 13 13 13 13 12 12 12 12 12 12 12 12 12 12 12 12 13
18 18 18 17 17 17 16 16 16 15 15 15 15 15 15 15 14 14 14 14 13 13 13 13 13 13 13 12 12 12 12 12 12 11 11 11 11 11 11 11 11 11 12
18 18 18 17 17 17 16 16 16 15 15 15 14 14 14 14 14 14 14 14 13 13 12 12 12 12 12 12 12 12 12 12 11 11 11 11 11 11 11 11 11 11 11
18 18 18 17 17 16 16 16 15 15 15 15 14 14 14 14 14 14 13 13 13 13 12 12 12 12 12 12 12 12 12 11 11 11 11 11 11 11 10 10 10 10 10
18 18 18 17 17 16 16 16 15 15 15 14 14 14 14 14 13 13 13 13 13 12 12 12 12 12 12 12 12 11 11 11 11 11 11 11 11 10 10 10 10 10 10
18 18 18 17 17 16 16 15 15 15 14 14 14 13 13 13 13 13 13 12 12 12 12 11 11 11 11 11 11 11 11 11 10 10 10 10 10 10 10 10 9 9 9
18 18 17 17 17 16 16 15 15 14 14 14 13 13 13 13 13 13 12 12 12 12 11 11 11 11 11 11 11 11 10 10 10 10 10 10 10 9 9 9 9 9 9
18 17 17 17 16 16 16 15 15 14 14 13 13 13 13 13 12 12 12 12 12 12 11 11 11 11 11 11 10 10 10 10 10 10 9 9 9 9 9 9 9 8 8
17 17 17 16 16 16 16 15 14 14 14 13 13 12 12 12 12 12 12 12 12 11 11 11 11 11 11 10 10 10 10 10 9 9 9 9 9 8 8 8 8 8 8
17 17 16 16 16 15 15 15 14 14 14 13 13 12 12 12 12 12 12 12 11 11 11 11 11 10 10 10 10 10 9 9 9 9 8 8 8 8 8 7 7 7 7
17 16 16 16 15 15 15 14 14 14 14 14 13 13 12 12 12 12 11 11 11 11 10 10 10 10 10 10 9 9 9 9 8 8 8 8 8 7 7 7 7 7 6
16 16 16 15 15 15 14 14 14 14 13 13 13 12 12 12 11 11 11 11 10 10 10 10 10 9 9 9 9 8 8 8 8 8 7 7 7 7 7 6 6 6 6
16 16 15 15 15 15 14 14 14 13 13 13 13 12 12 12 11 11 11 10 10 10 10 9 9 9 9 8 8 8 8 7 7 7 7 7 7 6 6 6 6 5 5
16 16 15 15 15 14 14 14 13 13 13 13 13 12 12 11 11 11 10 10 10 9 9 9 9 9 8 8 8 8 7 7 7 6 6 6 6 6 6 5 5 5 5
15 15 15 15 14 14 14 13 13 13 13 13 12 12 12 11 11 10 10 10 9 9 9 9 9 8 8 8 7 7 7 6 6 6 6 5 5 5 5 5 4 4 4
15 15 14 14 14 14 13 13 12 12 12 12 12 12 11 11 10 10 10 9 9 9 9 8 8 8 7 7 7 7 6 6 6 5 5 5 5 4 4 4 4 3 3
15 14 14 14 13 13 13 13 12 12 12 11 11 11 11 11 10 10 10 9 9 9 8 8 8 7 7 7 6 6 6 5 5 5 5 4 4 4 3 3 3 3 2
14 14 14 13 13 13 12 12 12 12 11 11 11 11 10 10 10 9 9 9 8 8 8 7 7 7 6 6 6 6 5 5 5 4 4 4 3 3 3 2 2 2 2
14 13 13 13 12 12 12 12 11 11 11 11 10 10 10 9 9 9 9 8 8 7 7 7 6 6 6 6 5 5 4 4 4 3 3 3 3 2 2 1 1 1 1
13 13 12 12 12 11 11 11 11 10 10 10 10 9 9 9 9 8 8 8 7 7 7 6 6 6 5 5 4 4 4 3 3 3 2 2 2 2 1 1 1 0 0
12 12 12 11 11 11 11 10 10 10 10 9 9 9 8 8 8 8 7 7 7 6 6 6 5 5 4 4 4 4 3 3 3 2 2 2 1 1 1 0 0 -0 -0
11 11 11 11 10 10 10 10 9 9 9 8 8 8 8 7 7 7 7 6 6 6 5 5 5 4 4 4 3 3 3 2 2 2 1 1 1 0 0 0 -0 -1 -1

GEFSGL_850_meantemp_144.txt.gz
Temperature
18 18 18 17 17 17 17 17 17 16 16 16 16 15 15 15 15 15 15 14 14 14 14 14 14 14 14 14 14 14 14 13 13 13 13 13 13 13 13 13 13 13 13
18 18 18 18 17 17 17 17 17 16 16 16 16 15 15 15 15 15 15 14 14 14 14 14 14 14 14 14 14 13 13 13 13 13 13 13 13 13 13 13 13 13 13
18 18 18 18 17 17 17 17 17 16 16 16 16 15 15 15 15 15 14 14 14 14 14 14 14 14 14 14 13 13 13 13 13 13 12 12 12 12 13 13 13 13 13
18 18 18 18 18 17 17 17 16 16 16 16 16 15 15 15 15 15 14 14 14 14 14 14 13 13 13 13 13 13 13 13 12 12 12 12 12 12 12 12 12 12 12
18 18 18 18 18 17 17 17 16 16 16 16 15 15 15 15 15 14 14 14 14 14 14 13 13 13 13 13 13 13 13 12 12 12 12 12 12 12 12 12 12 12 12
19 18 18 18 17 17 17 17 16 16 16 16 15 15 15 15 14 14 14 14 14 14 13 13 13 13 13 13 13 12 12 12 12 12 12 12 11 11 11 11 11 11 11
19 18 18 18 17 17 17 16 16 16 16 15 15 15 15 15 14 14 14 14 13 13 13 13 13 13 13 12 12 12 12 12 12 11 11 11 11 11 11 10 10 10 10
19 18 18 18 17 17 17 16 16 16 16 15 15 15 15 14 14 14 14 13 13 13 13 13 13 13 12 12 12 12 12 12 11 11 11 11 10 10 10 10 10 10 10
19 18 18 18 17 17 17 16 16 16 16 15 15 15 14 14 14 14 13 13 13 13 13 13 12 12 12 12 12 12 12 11 11 11 11 10 10 10 10 10 10 9 9
19 19 18 18 17 17 17 16 16 16 15 15 15 14 14 14 14 13 13 13 13 13 12 12 12 12 12 12 11 11 11 11 11 11 11 10 10 10 10 9 9 9 8
19 19 18 18 17 17 17 16 16 15 15 15 14 14 14 14 13 13 13 13 13 12 12 12 12 12 11 11 11 11 11 11 10 10 10 10 10 10 9 9 9 8 8
19 18 18 18 17 17 16 16 15 15 15 14 14 14 14 13 13 13 13 13 12 12 12 12 11 11 11 11 11 11 10 10 10 10 10 10 9 9 9 9 8 8 8
18 18 18 17 17 16 16 16 15 15 15 14 14 14 14 13 13 13 13 12 12 12 12 11 11 11 11 11 10 10 10 10 10 9 9 9 9 8 8 8 8 8 7
18 18 17 17 17 16 16 15 15 15 15 14 14 14 14 13 13 13 12 12 12 11 11 11 11 11 10 10 10 10 10 9 9 9 9 8 8 8 8 7 7 7 7
18 18 17 17 17 16 16 16 15 15 15 15 15 14 14 14 13 13 12 12 12 11 11 11 11 10 10 10 10 10 9 9 9 9 8 8 8 8 7 7 7 6 6
18 18 17 17 16 16 16 15 15 15 14 14 14 13 13 13 13 12 12 12 11 11 11 10 10 10 10 10 9 9 9 9 8 8 8 7 7 7 7 7 6 6 6
18 18 17 17 16 16 16 15 15 14 14 14 13 13 13 13 12 12 12 11 11 10 10 10 10 10 9 9 9 9 8 8 8 7 7 7 7 6 6 6 5 5 5
18 17 17 17 16 16 15 15 15 15 14 14 13 13 13 12 12 12 11 11 10 10 10 10 10 9 9 9 8 8 8 8 7 7 7 6 6 6 5 5 5 5 4
17 17 17 16 16 16 15 15 14 14 14 14 13 13 12 12 11 11 11 10 10 10 10 10 9 9 9 8 8 8 7 7 7 6 6 6 6 5 5 5 4 4 4
17 17 16 16 15 15 15 14 14 14 13 13 13 13 12 12 11 11 11 10 10 10 10 9 9 9 8 8 8 7 7 7 6 6 6 5 5 5 4 4 4 3 3
16 16 16 15 15 15 14 14 14 13 13 13 13 12 12 11 11 11 10 10 10 10 9 9 9 8 8 8 7 7 6 6 6 5 5 5 4 4 4 3 3 3 3
16 16 15 15 15 14 14 14 13 13 13 12 12 12 11 11 11 10 10 10 10 9 9 9 8 8 8 7 7 6 6 6 5 5 5 4 4 4 3 3 3 2 2
15 15 15 15 14 14 13 13 13 12 12 12 11 11 11 10 10 10 10 9 9 9 8 8 8 7 7 7 6 6 5 5 5 4 4 4 3 3 3 2 2 2 1
14 14 14 14 13 13 13 12 12 12 11 11 11 10 10 10 10 9 9 9 8 8 8 7 7 7 6 6 6 5 5 4 4 4 4 3 3 2 2 2 1 1 1
14 13 13 13 13 12 12 12 11 11 11 10 10 10 10 9 9 9 8 8 8 7 7 7 6 6 6 5 5 5 4 4 4 3 3 3 2 2 2 1 1 1 0
13 13 12 12 12 11 11 11 10 10 10 10 9 9 9 8 8 8 8 7 7 7 6 6 6 5 5 5 4 4 4 3 3 3 2 2 2 1 1 1 0 0 -0

GEFSGL_850_meantemp_150.txt.gz
Temperature
18 17 17 17 17 17 16 16 16 16 15 15 15 15 15 14 14 14 14 14 14 14 14 14 14 14 14 14 14 14 14 13 13 13 12 12 12 12 13 13 13 13 13
18 18 17 17 17 17 16 16 16 16 15 15 15 15 15 14 14 14 14 14 14 14 14 14 14 14 14 14 14 13 13 13 13 13 12 12 12 12 12 12 12 12 12
18 18 17 17 17 17 16 16 16 16 15 15 15 15 15 15 14 14 14 14 14 14 14 14 14 14 14 13 13 13 13 13 13 12 12 12 12 12 12 12 12 12 12
18 18 18 17 17 17 17 16 16 16 16 15 15 15 15 15 14 14 14 14 14 14 14 14 13 13 13 13 13 13 13 13 12 12 12 12 12 12 12 12 12 12 12
18 18 18 18 17 17 17 16 16 16 16 15 15 15 15 15 14 14 14 14 14 14 13 13 13 13 13 13 13 13 12 12 12 12 12 12 12 12 11 11 11 11 11
18 18 18 18 17 17 17 16 16 16 15 15 15 15 15 15 14 14 14 14 14 13 13 13 13 13 13 13 13 12 12 12 12 12 12 11 11 11 11 11 11 11 11
18 18 18 18 17 17 17 16 16 16 15 15 15 15 15 14 14 14 14 13 13 13 13 13 13 13 13 12 12 12 12 12 12 11 11 11 11 11 11 11 10 10 10
18 18 18 18 17 17 17 16 16 16 16 15 15 15 14 14 14 14 13 13 13 13 13 13 13 12 12 12 12 12 12 12 11 11 11 11 11 10 10 10 10 10 10
18 18 18 18 17 17 17 17 16 16 16 15 15 15 14 14 14 13 13 13 13 13 13 12 12 12 12 12 12 12 12 11 11 11 11 10 10 10 10 10 10 10 10
19 19 18 18 17 17 17 17 16 16 16 15 15 14 14 14 13 13 13 13 13 13 12 12 12 12 12 12 12 11 11 11 11 11 10 10 10 10 10 9 9 9 9
19 19 18 18 17 17 17 16 16 16 15 15 15 14 14 14 13 13 13 13 13 12 12 12 12 12 12 11 11 11 11 10 10 10 10 10 10 10 9 9 9 8 8
19 18 18 18 17 17 16 16 16 15 15 15 14 14 14 14 13 13 13 13 12 12 12 12 12 11 11 11 11 11 10 10 10 10 10 10 9 9 9 9 8 8 8
19 18 18 18 17 17 16 16 16 15 15 15 14 14 14 14 13 13 13 12 12 12 12 12 11 11 11 11 11 10 10 10 10 10 9 9 9 9 8 8 8 8 7
19 18 18 17 17 17 16 16 16 15 15 15 15 14 14 14 13 13 13 12 12 12 12 11 11 11 11 11 10 10 10 10 9 9 9 9 8 8 8 8 8 7 7
18 18 17 17 17 16 16 16 16 15 15 15 15 14 14 14 14 13 13 12 12 12 11 11 11 11 11 10 10 10 10 9 9 9 9 8 8 8 8 7 7 7 6
18 18 17 17 17 16 16 15 15 15 15 14 14 14 13 13 13 13 12 12 12 11 11 11 11 10 10 10 10 10 9 9 9 8 8 8 8 7 7 7 6 6 6
18 18 17 17 16 16 16 15 15 15 14 14 14 13 13 13 13 12 12 12 11 11 11 10 10 10 10 10 9 9 9 9 8 8 8 7 7 7 7 6 6 6 5
18 17 17 17 17 16 16 15 15 15 15 14 14 13 13 13 12 12 12 11 11 11 11 10 10 10 9 9 9 9 8 8 8 8 7 7 7 6 6 6 5 5 5
17 17 17 17 16 16 16 15 15 15 14 14 14 13 13 12 12 12 11 11 11 11 11 10 10 9 9 9 9 8 8 8 8 7 7 7 6 6 6 5 5 5 4
17 17 17 16 16 16 15 15 15 14 14 14 13 13 13 12 12 12 11 11 11 11 10 10 10 9 9 8 8 8 8 7 7 7 7 6 6 5 5 5 4 4 4
17 16 16 16 16 15 15 15 14 14 14 13 13 13 12 12 12 11 11 11 11 10 10 10 9 9 8 8 8 7 7 7 7 6 6 6 5 5 5 4 4 3 3
16 16 16 15 15 15 15 14 14 14 13 13 13 12 12 11 11 11 11 10 10 10 9 9 9 8 8 8 7 7 7 7 6 6 6 5 5 4 4 4 3 3 3
16 15 15 15 15 14 14 14 13 13 13 12 12 12 11 11 11 11 10 10 10 9 9 9 8 8 8 7 7 7 6 6 6 5 5 4 4 4 3 3 3 2 2
15 15 15 14 14 14 13 13 13 12 12 12 11 11 11 10 10 10 10 9 9 9 8 8 8 7 7 7 6 6 6 5 5 4 4 4 3 3 3 2 2 2 1
14 14 14 14 13 13 13 12 12 12 11 11 11 10 10 10 9 9 9 8 8 8 8 7 7 7 6 6 6 6 5 5 4 4 4 3 3 3 2 2 1 1 1
13 13 13 13 12 12 12 11 11 11 11 10 10 10 9 9 9 8 8 8 7 7 7 7 6 6 6 5 5 5 5 4 4 3 3 3 2 2 2 1 1 1 0

GEFSGL_850_meantemp_156.txt.gz
Temperature
17 17 17 17 16 16 16 16 15 15 15 15 15 15 15 15 14 14 14 14 14 14 14 14 14 14 14 14 14 14 14 14 13 12 12 12 12 12 12 12 12 12 12
18 17 17 17 16 16 16 16 16 15 15 15 15 15 15 15 14 14 14 14 14 14 14 14 14 14 14 13 13 13 13 13 13 13 12 12 12 12 12 12 12 12 12
18 17 17 17 17 16 16 16 16 15 15 15 15 15 15 15 14 14 14 14 14 14 14 14 13 13 13 13 13 13 13 13 13 12 12 12 12 12 12 12 12 12 11
18 17 17 17 17 17 16 16 16 16 15 15 15 15 15 15 14 14 14 14 14 14 14 14 13 13 13 13 13 13 13 12 12 12 12 12 12 12 11 11 11 11 11
18 17 17 17 17 17 17 16 16 16 15 15 15 15 15 15 14 14 14 14 14 14 14 14 14 13 13 13 13 13 12 12 12 12 12 12 11 11 11 11 11 11 11
18 18 17 17 17 17 17 17 16 16 16 15 15 15 15 15 15 15 14 14 14 13 13 13 13 13 13 13 13 13 13 12 12 12 11 11 11 11 11 11 11 11 10
18 18 18 17 17 17 17 17 16 16 16 16 15 15 15 15 15 15 14 14 13 13 13 13 13 13 13 13 13 13 13 12 12 12 11 11 11 11 11 11 10 10 10
18 18 18 18 17 17 17 17 17 16 16 16 15 15 15 15 15 14 14 14 13 13 13 13 13 13 13 13 12 12 12 12 12 12 11 11 11 11 11 11 10 10 10
18 18 18 18 17 17 17 17 17 16 16 16 15 15 15 15 14 14 14 14 13 13 13 13 13 13 13 13 12 12 12 12 12 12 12 11 11 11 11 10 10 10 10
18 18 18 18 18 17 17 17 17 16 16 16 15 15 15 14 14 14 14 13 13 13 13 13 13 13 13 12 12 12 12 11 11 11 11 11 11 10 10 10 10 9 9
19 18 18 18 18 17 17 17 16 16 16 15 15 15 15 14 14 14 14 13 13 13 13 13 13 13 13 12 12 12 11 11 11 10 10 10 10 10 10 9 9 9 9
18 18 18 18 17 17 17 17 16 16 16 15 15 15 14 14 14 14 14 13 13 13 13 13 13 13 12 12 12 12 11 11 10 10 10 10 10 9 9 9 9 9 8
18 18 18 18 17 17 17 17 16 16 15 15 15 15 15 14 14 14 14 13 13 13 12 12 12 12 12 12 11 11 11 10 10 10 10 9 9 9 9 9 9 8 8
18 18 18 17 17 17 17 16 16 16 16 15 15 15 15 14 14 14 14 13 13 13 12 12 12 12 11 11 11 11 10 10 10 9 9 9 9 9 8 8 8 8 7
18 18 17 17 17 17 16 16 16 16 16 15 15 15 15 14 14 14 14 13 13 12 12 12 11 11 11 11 11 10 10 10 10 9 9 9 8 8 8 8 8 7 7
17 17 17 17 17 16 16 16 16 16 15 15 15 15 14 14 14 14 13 13 12 12 12 11 11 11 11 11 10 10 10 9 9 9 9 8 8 8 7 7 7 7 6
17 17 17 17 17 16 16 16 16 15 15 15 15 14 14 14 13 13 13 12 12 12 11 11 11 11 11 10 10 10 9 9 9 9 8 8 8 7 7 7 6 6 6
17 17 17 17 16 16 16 16 15 15 15 15 14 14 14 13 13 13 12 12 12 12 11 11 11 11 10 10 10 9 9 9 8 8 8 8 7 7 6 6 6 6 5
17 17 17 16 16 16 16 15 15 15 15 14 14 14 14 13 13 12 12 12 12 11 11 11 11 10 10 9 9 9 9 8 8 7 7 7 7 6 6 6 5 5 5
17 17 17 16 16 16 15 15 15 15 14 14 14 14 13 13 12 12 12 12 11 11 11 11 10 10 10 9 9 8 8 8 7 7 7 7 6 6 6 5 5 5 4
16 16 16 16 16 15 15 15 15 14 14 14 13 13 13 13 12 12 12 11 11 11 10 10 10 10 9 9 8 8 8 7 7 7 6 6 6 5 5 5 5 4 4
16 16 16 15 15 15 15 14 14 14 14 13 13 13 12 12 12 11 11 11 10 10 10 9 9 9 9 8 8 7 7 7 6 6 6 6 5 5 5 4 4 4 3
15 15 15 15 15 15 14 14 14 13 13 13 12 12 12 11 11 11 10 10 10 10 9 9 9 8 8 8 7 7 7 6 6 6 5 5 5 4 4 4 4 3 3
15 15 15 14 14 14 14 13 13 13 12 12 12 12 11 11 11 10 10 10 9 9 9 8 8 8 7 7 7 6 6 6 5 5 5 4 4 4 3 3 3 3 2
14 14 14 14 13 13 13 13 12 12 12 11 11 11 11 10 10 10 9 9 9 8 8 8 7 7 7 6 6 6 5 5 5 5 4 4 4 3 3 3 2 2 2
13 13 13 13 13 13 12 12 12 11 11 11 10 10 10 10 9 9 9 9 8 8 7 7 7 6 6 5 5 5 5 4 4 4 4 3 3 3 2 2 2 1 1

GEFSGL_850_meantemp_162.txt.gz
Temperature
18 17 17 17 17 17 17 16 16 16 16 16 16 16 16 15 15 15 15 15 15 15 15 15 15 15 15 15 15 15 15 14 14 13 13 13 13 13 13 13 13 13 13
18 18 17 17 17 17 17 16 16 16 16 16 16 16 16 16 15 15 15 15 15 15 15 15 15 15 15 14 14 14 14 14 14 13 13 13 13 13 13 13 13 13 13
18 18 18 17 17 17 17 16 16 16 16 16 16 16 16 16 16 15 15 15 15 15 15 15 15 14 14 14 14 14 14 14 13 13 13 12 12 12 13 12 12 12 12
18 18 18 18 17 17 17 16 16 16 16 16 16 16 16 16 16 15 15 15 15 15 15 15 15 14 14 14 14 14 14 13 13 13 12 12 12 12 12 12 12 12 12
18 18 18 18 17 17 17 16 16 16 16 16 16 16 16 16 16 16 15 15 15 15 15 15 14 14 14 14 14 14 13 13 13 13 12 12 12 12 12 12 12 12 12
18 18 18 18 17 17 17 17 16 16 16 16 16 16 16 16 16 16 15 15 15 15 15 14 14 14 14 14 14 14 13 13 13 13 12 12 12 12 12 12 11 11 11
18 18 18 18 17 17 17 17 16 16 16 16 16 16 16 16 16 15 15 15 15 15 14 14 14 14 14 14 14 13 13 13 13 13 12 12 12 12 12 12 11 11 11
18 18 18 18 17 17 17 17 17 16 16 16 16 16 16 16 15 15 15 15 15 14 14 14 14 14 14 14 13 13 13 13 13 13 13 12 12 12 12 11 11 11 11
18 18 18 18 17 17 17 17 17 16 16 16 16 16 16 16 15 15 15 15 15 15 14 14 14 14 14 13 13 13 13 13 13 12 12 12 12 12 12 11 11 11 11
18 18 18 18 17 17 17 17 17 16 16 16 16 16 16 15 15 15 15 14 14 14 14 14 14 14 14 13 13 13 13 13 12 12 12 12 12 11 11 11 11 10 10
18 18 18 17 17 17 17 17 17 16 16 16 16 16 16 15 15 15 15 14 14 14 14 14 14 14 13 13 13 13 12 12 12 12 12 11 11 11 11 11 10 10 10
19 18 18 17 17 17 17 17 16 16 16 16 16 16 16 15 15 15 15 15 14 14 14 14 14 14 13 13 13 13 12 12 12 11 11 11 11 11 10 10 10 10 10
19 18 18 17 17 17 17 16 16 16 16 16 15 15 15 16 15 15 15 15 14 14 14 14 13 13 13 13 12 12 12 12 11 11 11 11 10 10 10 10 9 9 9
18 18 18 17 17 16 16 16 16 16 16 16 15 15 15 15 15 15 15 15 14 14 14 13 13 13 13 12 12 12 12 11 11 11 11 10 10 10 10 9 9 9 8
18 18 17 17 16 16 16 16 16 16 16 16 15 15 15 15 15 15 15 15 14 14 13 13 13 12 12 12 12 11 11 11 11 10 10 10 10 9 9 9 8 8 8
17 17 17 16 16 16 16 15 15 15 15 15 15 15 15 15 14 14 14 14 14 13 13 13 12 12 12 12 11 11 11 11 10 10 10 9 9 9 9 8 8 7 7
17 17 16 16 16 15 15 15 15 15 15 14 14 14 14 14 14 14 14 13 13 13 13 12 12 12 12 11 11 11 10 10 10 9 9 9 9 8 8 8 7 7 7
17 16 16 16 16 15 15 15 15 15 15 14 14 14 14 14 13 13 13 13 13 12 12 12 12 12 11 11 10 10 10 10 9 9 9 8 8 8 7 7 7 6 6
16 16 15 15 15 15 15 15 15 14 14 14 14 14 14 13 13 13 12 12 12 12 12 12 12 11 11 10 10 10 9 9 9 8 8 8 7 7 7 6 6 6 6
15 15 15 15 15 15 14 14 14 14 14 14 14 14 14 13 13 13 12 12 12 12 12 11 11 11 10 10 10 9 9 8 8 8 8 7 7 7 6 6 6 5 5
15 15 15 15 14 14 14 14 14 14 14 14 14 14 14 13 13 13 12 12 12 12 11 11 10 10 10 10 9 9 8 8 8 7 7 7 7 6 6 5 5 5 5
15 15 15 14 14 14 14 14 14 14 13 13 13 13 13 13 12 12 12 12 11 11 11 10 10 10 9 9 9 8 8 8 7 7 7 6 6 6 5 5 5 4 4
14 14 14 14 14 14 13 13 13 13 13 13 13 12 12 12 12 11 11 11 11 10 10 10 10 9 9 8 8 8 7 7 7 6 6 5 5 5 4 4 4 4 3
14 14 14 13 13 13 13 13 13 12 12 12 12 12 12 11 11 11 11 10 10 10 9 9 9 8 8 8 7 7 7 6 6 5 5 5 4 4 4 3 3 3 3
13 13 13 13 12 12 12 12 12 12 12 11 11 11 11 11 10 10 10 10 10 9 9 9 8 8 8 7 7 6 6 6 5 5 5 4 4 3 3 3 2 2 2
12 12 12 12 12 12 12 11 11 11 11 11 11 11 10 10 10 10 9 9 9 9 8 8 8 7 7 7 6 6 5 5 5 4 4 4 3 3 2 2 2 1 1

GEFSGL_850_meantemp_168.txt.gz
Temperature
17 17 17 17 17 16 16 16 16 16 16 16 16 15 15 15 15 15 15 15 15 15 15 15 15 15 15 15 15 15 14 14 14 13 13 13 13 13 13 12 12 12 12
17 17 17 17 17 16 16 16 16 16 16 16 16 16 15 15 15 15 15 15 15 15 15 15 15 15 15 15 14 14 14 14 14 13 13 13 13 13 12 12 12 12 12
17 17 17 17 17 17 16 16 16 16 16 16 16 16 16 15 15 15 15 15 15 15 15 15 15 15 15 14 14 14 14 14 14 13 13 13 12 12 12 12 12 12 12
17 17 17 17 17 17 17 16 16 16 16 16 16 16 16 15 15 15 15 15 15 15 15 15 15 15 15 14 14 14 14 14 13 13 13 13 12 12 12 12 12 12 12
17 17 17 17 17 17 17 16 16 16 16 16 16 16 16 15 15 15 15 15 15 15 15 15 14 14 14 14 14 14 14 13 13 13 13 13 12 12 12 12 12 12 11
18 17 17 17 17 17 17 16 16 16 16 16 16 16 16 15 15 15 15 15 15 15 15 15 14 14 14 14 14 14 14 13 13 13 13 12 12 12 12 12 12 11 11
18 18 17 17 17 17 17 16 16 16 16 16 16 16 16 15 15 15 15 15 15 15 15 14 14 14 14 14 14 14 13 13 13 13 13 13 12 12 12 12 11 11 11
18 18 17 17 17 17 17 17 16 16 16 16 16 16 16 15 15 15 15 15 15 15 14 14 14 14 14 14 14 14 13 13 13 13 13 12 12 12 12 11 11 11 11
18 18 18 18 17 17 17 17 16 16 16 16 16 16 16 15 15 15 15 15 15 15 14 14 14 14 14 13 13 13 13 13 13 12 12 12 12 12 11 11 11 11 11
18 18 18 18 17 17 17 17 16 16 16 16 16 15 15 15 15 15 15 15 15 15 14 14 14 14 13 13 13 13 13 13 12 12 12 12 12 11 11 11 11 10 10
18 18 18 18 18 17 17 17 16 16 16 16 15 15 15 15 15 15 15 15 15 15 14 14 14 13 13 13 13 13 13 12 12 12 12 11 11 11 11 10 10 10 10
18 18 18 18 17 17 17 17 16 16 16 15 15 15 15 15 15 15 15 15 14 14 14 14 13 13 13 13 13 12 12 12 12 12 11 11 11 11 10 10 10 10 9
18 18 18 18 17 17 17 17 16 16 16 15 15 15 15 15 15 15 15 14 14 14 14 13 13 13 13 12 12 12 12 12 11 11 11 11 10 10 10 10 10 9 9
19 18 18 18 17 17 17 16 16 16 16 15 15 15 15 15 15 15 15 14 14 14 14 13 13 13 12 12 12 12 11 11 11 11 11 10 10 10 10 9 9 9 9
18 18 18 18 17 17 17 16 16 16 16 16 16 16 15 15 15 15 14 14 14 13 13 13 13 12 12 12 12 11 11 11 11 10 10 10 10 10 9 9 9 8 8
18 18 18 17 17 17 16 16 16 15 15 15 15 15 15 15 14 14 14 13 13 13 12 12 12 12 12 12 11 11 11 11 10 10 10 10 9 9 9 9 8 8 8
18 18 17 17 17 17 16 16 16 15 15 15 15 14 14 14 14 13 13 13 12 12 12 12 12 12 11 11 11 11 10 10 10 10 9 9 9 8 8 8 8 7 7
17 17 17 17 17 16 16 16 15 15 15 14 14 14 14 13 13 13 12 12 12 12 12 12 12 11 11 11 11 10 10 10 9 9 9 9 8 8 8 7 7 7 6
17 17 16 16 16 16 16 15 15 15 14 14 14 14 13 13 13 12 12 12 12 12 12 11 11 11 11 10 10 10 10 9 9 9 8 8 8 7 7 7 6 6 6
16 16 16 16 16 15 15 15 15 14 14 14 14 13 13 13 12 12 12 12 12 11 11 11 11 10 10 10 10 9 9 9 9 8 8 8 7 7 6 6 6 5 5
15 15 15 15 15 15 15 14 14 14 14 14 13 13 13 13 12 12 12 12 11 11 11 11 10 10 10 9 9 9 9 8 8 8 7 7 7 6 6 5 5 5 4
15 15 15 15 15 14 14 14 14 14 13 13 13 13 12 12 12 12 11 11 11 11 10 10 10 10 9 9 9 8 8 8 8 7 7 6 6 6 5 5 4 4 4
14 14 14 14 14 14 14 13 13 13 13 13 12 12 12 12 11 11 11 11 11 10 10 10 10 9 9 9 8 8 8 7 7 7 6 6 5 5 5 4 4 4 3
14 14 14 14 13 13 13 13 13 13 12 12 12 12 12 11 11 11 11 10 10 10 9 9 9 9 9 8 8 8 7 7 6 6 5 5 5 5 4 4 3 3 3
13 13 13 13 13 13 12 12 12 12 12 12 11 11 11 11 11 10 10 10 9 9 9 9 9 8 8 8 8 7 7 6 6 5 5 5 4 4 4 3 3 2 2
13 13 12 12 12 12 12 12 11 11 11 11 11 11 10 10 10 10 9 9 9 9 8 8 8 8 7 7 7 6 6 6 5 5 4 4 4 3 3 3 2 2 1